This is the latest recevied weather packets stored in our database for station/object N4JTC. If no packets are shown the sender has not sent any weather packets the latest 10 day(s).
| Time | Temp. | Humidity | Pressure | Rain* | Wind** | Luminosity | Snow |
|---|---|---|---|---|---|---|---|
| 1778117703 | 23.89° C | 91% | 1014.9 hPa | 0 mm | - | 0 W/m² | - |
| 1778117403 | 23.89° C | 90% | 1015 hPa | 0 mm | - | 0 W/m² | - |
| 1778117103 | 24.44° C | 90% | 1015 hPa | 0 mm | - | 0 W/m² | - |
| 1778116503 | 24.44° C | 90% | 1015.6 hPa | 0 mm | - | 0 W/m² | - |
| 1778116203 | 24.44° C | 90% | 1015.3 hPa | 0 mm | - | 0 W/m² | - |
| 1778115903 | 24.44° C | 90% | 1015.3 hPa | 0 mm | - | 0 W/m² | - |
| 1778115603 | 24.44° C | 90% | 1015.2 hPa | 0 mm | - | 0 W/m² | - |
| 1778115302 | 24.44° C | 90% | 1015.1 hPa | 0 mm | - | 0 W/m² | - |
| 1778114703 | 24.44° C | 89% | 1015.2 hPa | 0 mm | - | 0 W/m² | - |
| 1778114403 | 24.44° C | 89% | 1015.1 hPa | 0 mm | - | 0 W/m² | - |
| 1778114103 | 24.44° C | 89% | 1015.2 hPa | 0 mm | - | 0 W/m² | - |
| 1778113803 | 24.44° C | 89% | 1015 hPa | 0 mm | - | 0 W/m² | - |
| 1778113503 | 24.44° C | 88% | 1015 hPa | 0 mm | - | 0 W/m² | - |
| 1778113203 | 24.44° C | 88% | 1014.8 hPa | 0 mm | - | 2 W/m² | - |
| 1778112903 | 24.44° C | 88% | 1014.8 hPa | 0 mm | - | 3 W/m² | - |
| 1778112603 | 24.44° C | 88% | 1014.9 hPa | 0 mm | - | 6 W/m² | - |
| 1778112304 | 24.44° C | 87% | 1014.6 hPa | 0 mm | - | 10 W/m² | - |
| 1778112003 | 25° C | 87% | 1014.9 hPa | 0 mm | - | 19 W/m² | - |
| 1778111703 | 25° C | 86% | 1014.5 hPa | 0 mm | - | 26 W/m² | - |
| 1778111403 | 25° C | 86% | 1014.7 hPa | 0 mm | - | 31 W/m² | - |
| 1778111103 | 25.56° C | 84% | 1014.7 hPa | 0 mm | - | 36 W/m² | - |
| 1778110803 | 25.56° C | 83% | 1014.7 hPa | 0 mm | - | 42 W/m² | - |
| 1778110503 | 25.56° C | 83% | 1014.8 hPa | 0 mm | - | 58 W/m² | - |
| 1778109903 | 26.11° C | 82% | 1014.7 hPa | 0 mm | - | 81 W/m² | - |
| 1778109603 | 26.11° C | 81% | 1014.9 hPa | 0 mm | - | 94 W/m² | - |
* Rain latest hour (hover to see other rain measurements)
** Current wind speed in m/s (hover to see current wind gust speed)